TimeMST,TemperatureF,Dew PointF,Humidity,Sea Level PressureIn,VisibilityMPH,Wind Direction,Wind SpeedMPH,Gust SpeedMPH,PrecipitationIn,Events,Conditions,WindDirDegrees,DateUTC
12:55 AM,-13.0,-22.0,64,30.58,10.0,Calm,Calm,-,N/A,,Scattered Clouds,0,2013-01-14 07:55:00
1:55 AM,-13.0,-22.0,64,30.58,10.0,Calm,Calm,-,N/A,,Clear,0,2013-01-14 08:55:00
3:55 AM,-14.1,-24.0,61,30.61,9.0,Calm,Calm,-,N/A,,Clear,0,2013-01-14 10:55:00
4:55 AM,-16.1,-24.0,67,30.58,10.0,Calm,Calm,-,N/A,,Clear,0,2013-01-14 11:55:00
5:55 AM,-6.0,-25.1,39,30.56,10.0,Calm,Calm,-,N/A,,Clear,0,2013-01-14 12:55:00
6:55 AM,-4.0,-26.0,34,30.59,6.0,South,4.6,-,N/A,,Haze,190,2013-01-14 13:55:00
7:55 AM,-11.9,-22.0,61,30.67,10.0,Calm,Calm,-,N/A,,Clear,0,2013-01-14 14:55:00
8:55 AM,-4.0,-18.0,51,30.62,10.0,Calm,Calm,-,N/A,,Scattered Clouds,0,2013-01-14 15:55:00
9:55 AM,-6.0,-18.0,56,30.61,10.0,Calm,Calm,-,N/A,,Overcast,0,2013-01-14 16:55:00
10:55 AM,-0.9,-13.0,57,30.65,6.0,Calm,Calm,-,0.00,,Haze,0,2013-01-14 17:55:00
11:15 AM,-0.4,-13.0,55,30.29,1.8,Calm,Calm,-,0.00,Snow,Light Snow,0,2013-01-14 18:15:00
11:36 AM,8.6,-13.0,37,30.28,2.0,South,3.5,-,0.00,Snow,Light Snow,170,2013-01-14 18:36:00
11:55 AM,3.0,-11.9,50,30.58,3.0,Calm,Calm,-,0.00,Snow,Light Snow,0,2013-01-14 18:55:00
12:55 PM,3.9,-11.0,50,30.58,3.0,Calm,Calm,-,0.00,Snow,Light Snow,0,2013-01-14 19:55:00
1:17 PM,5.0,-9.4,52,30.23,2.5,Calm,Calm,-,0.00,Snow,Light Snow,0,2013-01-14 20:17:00
1:41 PM,6.8,-9.4,48,30.23,3.0,Calm,Calm,-,0.00,Snow,Light Snow,0,2013-01-14 20:41:00
1:55 PM,5.0,-9.9,50,30.56,6.0,Calm,Calm,-,0.00,,Haze,0,2013-01-14 20:55:00
3:55 PM,5.0,-8.0,55,30.58,10.0,Calm,Calm,-,0.00,,Overcast,0,2013-01-14 22:55:00
4:55 PM,3.9,-8.0,58,30.58,10.0,Calm,Calm,-,0.00,,Overcast,0,2013-01-14 23:55:00
5:55 PM,5.0,-7.1,58,30.57,8.0,Calm,Calm,-,0.00,Snow,Light Snow,0,2013-01-15 00:55:00
6:55 PM,10.0,-7.1,46,30.53,5.0,Calm,Calm,-,0.00,Snow,Light Snow,0,2013-01-15 01:55:00
7:55 PM,5.0,-6.0,61,30.59,10.0,Calm,Calm,-,0.00,,Overcast,0,2013-01-15 02:55:00
8:55 PM,7.0,-6.0,55,30.56,6.0,Calm,Calm,-,0.00,Snow,Light Snow,0,2013-01-15 03:55:00
9:55 PM,6.1,-5.1,60,30.60,8.0,Calm,Calm,-,0.01,Snow,Light Snow,0,2013-01-15 04:55:00
10:55 PM,7.0,-4.0,61,30.58,10.0,Calm,Calm,-,0.00,,Overcast,0,2013-01-15 05:55:00
11:55 PM,8.1,-4.0,58,30.56,10.0,Calm,Calm,-,N/A,,Overcast,0,2013-01-15 06:55:00